Location: Appingedam
(53.3222°N, 6.8488°E)
Time: 21:08:56
(UTC+00:00)

Cosmos 1975 - Pass Details

Date: 15 May 2026
Orbit: 471 x 485 km, 82.5° (Epoch: 8 June)

Event Time Altitude Azimuth Distance (km) Brightness Sun altitude
Rises 23:26:59 0° 339° (NNW) 2,576 7.6 -17.6°
Reaches altitude 10° 23:29:22 10° 325° (NW) 1,688 6.1 -17.6°
Maximum altitude 23:32:21 24° 271° (W) 1,060 4.2 -17.6°
Enters shadow 23:33:25 21° 245° (WSW) 1,153 4.2 -17.6°
